EW8749 Weather Reports


time (UTC)temp
C
wind
direction
speed
KPH
gust
KPH
rain 1hr
cm
rain 24hr
cm
rain mn
cm
humidity
%
barometer
mb
20260505004531 12 261 4.8 17.7 0.00 0.58 0.03 73 1020.7
20260505003114 12 305 6.4 19.3 0.00 0.58 0.03 75 1020.6
20260505001510 12 262 4.8 17.7 0.00 0.58 0.03 78 1020.4
20260505000010 12 347 8.0 16.1 0.00 0.58 0.03 78 1020.4
20260504234504 11 275 8.0 20.9 0.00 0.58 0.03 77 1020.1
20260504233002 11 326 8.0 16.1 0.00 0.58 0.03 80 1020.1
20260504231558 11 226 6.4 17.7 0.00 0.58 0.03 81 1019.9
20260504230156 11 265 3.2 17.7 0.00 0.58 0.03 82 1020.0
20260504224608 10 216 4.8 12.9 0.00 0.94 0.03 83 1020.2
20260504223050 10 264 0.0 8.0 0.00 0.94 0.03 85 1020.3
20260504221543 10 257 4.8 9.7 0.00 0.94 0.03 85 1020.2
20260504220040 10 259 1.6 9.7 0.00 0.94 0.03 86 1019.9
20260504050015 12 288 0.0 11.3 0.00 1.50 1.42 89 1014.0
20260504044531 12 258 1.6 6.4 0.03 1.50 1.42 89 1013.9
20260504043014 12 272 3.2 9.7 0.03 1.50 1.42 90 1014.1
20260504041507 12 229 3.2 11.3 0.03 1.50 1.42 90 1014.1
20260504040007 12 251 1.6 16.1 0.03 1.50 1.42 92 1014.0
20260504034506 12 256 6.4 16.1 0.00 1.45 1.40 91 1014.0
20260504033002 13 310 6.4 19.3 0.00 1.45 1.40 91 1013.9
20260504031600 13 289 6.4 12.9 0.00 1.45 1.40 91 1013.7
20260504030059 13 239 4.8 16.1 0.00 1.45 1.40 91 1013.7
20260504024606 13 229 4.8 16.1 0.00 1.45 1.40 92 1013.8
20260504023055 13 312 1.6 12.9 0.15 1.45 1.40 92 1014.2
20260504021553 13 247 1.6 9.7 0.18 1.45 1.40 92 1014.4
20260504020051 13 289 3.2 8.0 0.23 1.45 1.40 92 1014.8
20260504014552 13 261 3.2 14.5 0.23 1.45 1.40 92 1014.7
20260504013051 13 260 4.8 16.1 0.08 1.35 1.27 92 1015.2
20260504011550 14 337 4.8 16.1 0.10 1.30 1.22 91 1015.1
20260504010053 15 310 6.4 17.7 0.08 1.27 1.17 91 1015.2